Change the Weather History Date:

Sunday, May 12, 2013

  Actual Average Record
Temperature  
Mean Temperature 50 °F -  
Max Temperature 55 °F 70 °F 84 °F (2005)
Min Temperature 44 °F 46 °F 31 °F (1977)
Degree Days  
Heating Degree Days 16    
Moisture  
Dew Point 32 °F    
Average Humidity 52    
Maximum Humidity 82    
Minimum Humidity 30    
Precipitation  
Precipitation 0.00 in - - ()
Sea Level Pressure  
Sea Level Pressure 29.98 in    
Wind  
Wind Speed 11 mph (NW)    
Max Wind Speed 20 mph    
Max Gust Speed 36 mph    
Visibility 10 miles    
Events Rain    
Averages and records for this station are not official NWS values.
T = Trace of Precipitation, MM = Missing Value Source: NWS Daily Summary

Daily Weather History Graph

Daily Weather History Graph

Search for Another Location

Airport or City:

Trip Planner

Search our weather history database for the weather conditions in past years. The results will help you decide how hot, cold, wet, or windy it might be!

Date:

Astronomy

May. 12, 2013 Rise Set
Actual Time 6:21 AM EDT 8:23 PM EDT
Civil Twilight 5:52 AM EDT 8:51 PM EDT
Nautical Twilight 5:18 AM EDT 9:26 PM EDT
Astronomical Twilight 4:40 AM EDT 10:04 PM EDT
Moon 8:16 AM EDT (5/12) 10:48 PM EDT (5/12)
Length of Visible Light 14h 59m
Length of Day
14h 02m
Waxing Crescent, 6% of the Moon is Illuminated
May 12
Waxing Crescent
May 18
First Quarter
May 25
Full
May 31
Last Quarter
Jun 8
New

Hourly Weather History & Observations

Time (EDT) Temp. Windchill Dew Point Humidity Pressure Visibility Wind Dir Wind Speed Gust Speed Precip Events Conditions
12:15 AM 55.8 °F - 45.0 °F 67% 29.94 in 10.0 mi WNW 9.2 mph 26.5 mph N/A   Overcast
12:35 AM 54.9 °F - 43.7 °F 66% 29.94 in 10.0 mi NW 11.5 mph 23.0 mph N/A   Overcast
12:55 AM 54.1 °F - 43.0 °F 66% 29.94 in 10.0 mi WNW 9.2 mph 21.9 mph N/A   Mostly Cloudy
1:15 AM 53.6 °F - 43.0 °F 67% 29.93 in 10.0 mi NW 13.8 mph 27.6 mph N/A   Scattered Clouds
1:35 AM 52.9 °F - 42.1 °F 67% 29.93 in 10.0 mi NW 12.7 mph 19.6 mph N/A   Scattered Clouds
1:55 AM 52.0 °F - 41.4 °F 67% 29.93 in 10.0 mi NNW 16.1 mph 25.3 mph N/A   Scattered Clouds
2:15 AM 51.1 °F - 41.0 °F 68% 29.93 in 10.0 mi NW 10.4 mph 25.3 mph N/A   Scattered Clouds
2:35 AM 50.4 °F - 39.7 °F 67% 29.93 in 10.0 mi NNW 11.5 mph 18.4 mph N/A   Clear
2:55 AM 49.6 °F - 38.7 °F 66% 29.93 in 10.0 mi NNW 5.8 mph 16.1 mph N/A   Clear
3:15 AM 49.1 °F - 37.4 °F 64% 29.92 in 10.0 mi NNW 10.4 mph - N/A   Clear
3:35 AM 48.6 °F - 37.6 °F 66% 29.91 in 10.0 mi NW 9.2 mph - N/A   Clear
3:55 AM 48.2 °F - 37.4 °F 66% 29.92 in 10.0 mi NW 9.2 mph - N/A   Clear
4:15 AM 47.7 °F - 36.7 °F 66% 29.91 in 10.0 mi NW 5.8 mph 9.2 mph N/A   Clear
4:35 AM 47.3 °F - 36.7 °F 67% 29.91 in 10.0 mi NNW 9.2 mph - N/A   Scattered Clouds
4:55 AM 46.8 °F - 37.2 °F 69% 29.90 in 10.0 mi NNW 3.5 mph - N/A   Scattered Clouds
5:35 AM 48.4 °F - 40.1 °F 73% 29.91 in 10.0 mi NW 10.4 mph 23.0 mph N/A   Overcast
5:55 AM 48.4 °F - 40.5 °F 74% 29.90 in 10.0 mi West 11.5 mph 20.7 mph N/A   Overcast
6:15 AM 48.4 °F - 41.2 °F 76% 29.91 in 10.0 mi West 10.4 mph 16.1 mph N/A   Overcast
6:35 AM 48.4 °F - 41.7 °F 78% 29.91 in 7.0 mi West 13.8 mph 20.7 mph N/A   Overcast
6:55 AM 47.8 °F - 42.3 °F 81% 29.92 in 5.0 mi NW 16.1 mph 27.6 mph N/A   Light Drizzle
7:15 AM 47.8 °F - 42.1 °F 80% 29.93 in 5.0 mi NW 10.4 mph 19.6 mph N/A Rain Rain
7:35 AM 47.3 °F - 41.9 °F 82% 29.93 in 10.0 mi NNW 15.0 mph 23.0 mph N/A   Overcast
7:55 AM 45.7 °F 38.0 °F 38.8 °F 77% 29.94 in 10.0 mi NNW 19.6 mph 25.3 mph N/A   Overcast
8:15 AM 45.5 °F 39.6 °F 36.5 °F 71% 29.95 in 10.0 mi NW 12.7 mph 23.0 mph N/A   Mostly Cloudy
8:35 AM 45.1 °F 38.8 °F 34.9 °F 67% 29.95 in 10.0 mi NW 13.8 mph 23.0 mph N/A   Overcast
8:55 AM 46.4 °F 41.1 °F 34.7 °F 64% 29.96 in 10.0 mi NW 11.5 mph 21.9 mph N/A   Mostly Cloudy
9:15 AM 46.6 °F - 33.4 °F 60% 29.97 in 10.0 mi NW 9.2 mph 21.9 mph N/A   Mostly Cloudy
9:35 AM 48.0 °F - 33.3 °F 57% 29.97 in 10.0 mi WNW 8.1 mph - N/A   Scattered Clouds
9:55 AM 48.2 °F - 32.5 °F 55% 29.97 in 10.0 mi WNW 13.8 mph 35.7 mph N/A   Clear
10:15 AM 48.7 °F - 32.2 °F 53% 29.97 in 10.0 mi West 15.0 mph 21.9 mph N/A   Clear
10:35 AM 48.7 °F - 31.8 °F 52% 29.98 in 10.0 mi WNW 12.7 mph 25.3 mph N/A   Scattered Clouds
10:55 AM 48.7 °F - 31.5 °F 51% 29.97 in 10.0 mi West 15.0 mph 23.0 mph N/A   Scattered Clouds
11:15 AM 48.4 °F - 31.5 °F 52% 29.98 in 10.0 mi NW 6.9 mph - N/A   Mostly Cloudy
11:35 AM 49.5 °F - 30.7 °F 49% 29.98 in 10.0 mi West 9.2 mph 18.4 mph N/A   Mostly Cloudy
11:55 AM 50.5 °F - 31.1 °F 47% 29.98 in 10.0 mi West 12.7 mph 21.9 mph N/A   Mostly Cloudy
12:15 PM 50.5 °F - 30.4 °F 46% 29.99 in 10.0 mi West 16.1 mph 24.2 mph N/A   Mostly Cloudy
12:35 PM 50.9 °F - 28.4 °F 42% 29.99 in 10.0 mi WNW 16.1 mph 24.2 mph N/A   Mostly Cloudy
12:55 PM 51.1 °F - 28.6 °F 42% 30.00 in 10.0 mi West 11.5 mph 23.0 mph N/A   Mostly Cloudy
1:15 PM 52.0 °F - 27.3 °F 39% 30.00 in 10.0 mi West 16.1 mph 27.6 mph N/A   Mostly Cloudy
1:35 PM 52.5 °F - 27.1 °F 38% 30.00 in 10.0 mi West 8.1 mph 17.3 mph N/A   Scattered Clouds
1:55 PM 53.1 °F - 27.1 °F 37% 30.00 in 10.0 mi West 10.4 mph 24.2 mph N/A   Scattered Clouds
2:15 PM 53.2 °F - 25.3 °F 34% 30.00 in 10.0 mi NNW 10.4 mph 17.3 mph N/A   Scattered Clouds
2:35 PM 53.2 °F - 25.7 °F 34% 30.00 in 10.0 mi WNW 12.7 mph 23.0 mph N/A   Scattered Clouds
2:55 PM 53.8 °F - 24.4 °F 32% 30.00 in 10.0 mi West 12.7 mph 18.4 mph N/A   Clear
3:15 PM 54.0 °F - 25.0 °F 33% 29.99 in 10.0 mi WNW 17.3 mph 25.3 mph N/A   Scattered Clouds
3:35 PM 54.0 °F - 23.4 °F 30% 29.99 in 10.0 mi WNW 16.1 mph 26.5 mph N/A   Clear
3:55 PM 54.7 °F - 24.8 °F 32% 29.99 in 10.0 mi WNW 12.7 mph 18.4 mph N/A   Clear
4:15 PM 55.4 °F - 25.5 °F 32% 29.98 in 10.0 mi West 17.3 mph 20.7 mph N/A   Clear
4:35 PM 55.0 °F - 25.7 °F 32% 29.99 in 10.0 mi NW 9.2 mph 17.3 mph N/A   Scattered Clouds
4:55 PM 55.4 °F - 25.2 °F 31% 29.99 in 10.0 mi West 18.4 mph 26.5 mph N/A   Scattered Clouds
5:15 PM 54.1 °F - 25.2 °F 33% 30.00 in 10.0 mi WNW 11.5 mph - N/A   Clear
5:35 PM 53.8 °F - 24.8 °F 33% 30.00 in 10.0 mi NW 10.4 mph 20.7 mph N/A   Clear
5:55 PM 52.9 °F - 25.2 °F 34% 30.00 in 10.0 mi NW 10.4 mph 18.4 mph N/A   Clear
6:15 PM 52.5 °F - 25.3 °F 35% 30.00 in 10.0 mi WNW 11.5 mph - N/A   Clear
6:35 PM 51.1 °F - 25.3 °F 37% 30.01 in 10.0 mi NW 10.4 mph 16.1 mph N/A   Scattered Clouds
6:55 PM 51.3 °F - 25.5 °F 37% 30.02 in 10.0 mi West 11.5 mph - N/A   Clear
7:15 PM 50.9 °F - 25.2 °F 37% 30.02 in 10.0 mi WNW 12.7 mph 18.4 mph N/A   Clear
7:35 PM 50.2 °F - 25.0 °F 37% 30.03 in 10.0 mi NW 12.7 mph 19.6 mph N/A   Clear
7:55 PM 49.5 °F - 25.3 °F 39% 30.04 in 10.0 mi WNW 8.1 mph - N/A   Clear
8:15 PM 49.3 °F - 25.0 °F 39% 30.04 in 10.0 mi NW 8.1 mph - N/A   Clear
8:35 PM 48.9 °F - 24.8 °F 39% 30.04 in 10.0 mi NW 8.1 mph - N/A   Clear
8:55 PM 47.8 °F - 25.2 °F 41% 30.04 in 10.0 mi NW 11.5 mph - N/A   Clear
9:15 PM 47.5 °F - 25.0 °F 41% 30.03 in 10.0 mi NW 13.8 mph 19.6 mph N/A   Clear
9:35 PM 47.3 °F - 24.8 °F 41% 30.04 in 10.0 mi NW 11.5 mph 16.1 mph N/A   Clear
9:55 PM 46.9 °F - 24.1 °F 41% 30.05 in 10.0 mi NW 10.4 mph 17.3 mph N/A   Clear
10:15 PM 46.4 °F 41.9 °F 24.1 °F 42% 30.05 in 10.0 mi NNW 9.2 mph 19.6 mph N/A   Clear
10:35 PM 45.9 °F 42.9 °F 24.4 °F 43% 30.06 in 10.0 mi NNW 5.8 mph - N/A   Clear
10:55 PM 45.1 °F 43.7 °F 24.8 °F 45% 30.07 in 10.0 mi NW 3.5 mph - N/A   Clear
11:15 PM 44.6 °F 40.2 °F 24.8 °F 46% 30.06 in 10.0 mi North 8.1 mph - N/A   Clear
11:35 PM 44.4 °F 41.2 °F 24.3 °F 45% 30.07 in 10.0 mi NNW 5.8 mph - N/A   Clear
11:55 PM 44.2 °F 39.7 °F 24.3 °F 45% 30.07 in 10.0 mi NW 8.1 mph 16.1 mph N/A   Clear